Location: Amsterdam
(30.7274°N, 84.4357°W)
Time: 07:11:15
(UTC+00:00)

Courier 1B Rocket - Pass Details

Date: 09 February 2026
Orbit: 920 x 1201 km, 28.2° (Epoch: 9 March)

Event Time Altitude Azimuth Distance (km) Brightness Sun altitude
Rises 03:35:58 0° 236° (SW) 3,696 - -55.0°
Reaches altitude 10° 03:38:41 10° 230° (SW) 2,788 - -55.5°
Maximum altitude 03:45:06 44° 160° (SSE) 1,430 - -56.8°
Drops below altitude 10° 03:51:59 10° 90° (E) 2,992 - -58.2°
Sets 03:55:00 0° 85° (E) 3,991 - -58.8°
